Weather History for Panama City Tyndall AFB, FL

Change the Weather History Date:

Sunday, November 25, 2012

  Actual Average Record
Temperature  
Mean Temperature 49 °F -  
Max Temperature 62 °F 68 °F 78 °F (2001)
Min Temperature 36 °F 49 °F 35 °F (2003)
Degree Days  
Heating Degree Days 16    
Moisture  
Dew Point 35 °F    
Average Humidity 65    
Maximum Humidity 97    
Minimum Humidity 36    
Precipitation  
Precipitation 0.00 in - - ()
Sea Level Pressure  
Sea Level Pressure 30.18 in    
Wind  
Wind Speed 3 mph (ENE)    
Max Wind Speed 6 mph    
Max Gust Speed -    
Visibility 10 miles    
Events      
Averages and records for this station are not official NWS values.
T = Trace of Precipitation, MM = Missing Value Source: NWS Daily Summary

Daily Weather History Graph

Daily Weather History Graph

Search for Another Location

Airport:

Trip Planner

Search our weather history database for the weather conditions in past years. The results will help you decide how hot, cold, wet, or windy it might be!

Date:

Astronomy

Nov. 25, 2012 Rise Set
Actual Time 6:16 AM CST 4:42 PM CST
Civil Twilight 5:50 AM CST 5:08 PM CST
Nautical Twilight 5:21 AM CST 5:37 PM CST
Astronomical Twilight 4:52 AM CST 6:06 PM CST
Moon 2:52 PM CST (11/25) 3:37 AM CST (11/25)
Length of Visible Light 11h 17m
Length of Day
10h 26m
Waxing Gibbous, 93% of the Moon is Illuminated
Nov 25
Waxing Gibbous
Nov 28
Full
Dec 6
Last Quarter
Dec 13
New
Dec 19
First Quarter

Hourly Weather History & Observations

Time (CST) Temp. Windchill Dew Point Humidity Pressure Visibility Wind Dir Wind Speed Gust Speed Precip Events Conditions
12:55 AM 45.0 °F 41.8 °F 33.3 °F 64% 30.15 in 10.0 mi Variable 5.8 mph - N/A   Clear
1:55 AM 43.3 °F 41.7 °F 32.4 °F 65% 30.15 in 10.0 mi North 3.5 mph - N/A   Clear
2:55 AM 39.6 °F - 32.4 °F 75% 30.17 in 10.0 mi Calm Calm - N/A   Clear
3:55 AM 36.9 °F - 31.6 °F 81% 30.17 in 10.0 mi Calm Calm - N/A   Clear
4:55 AM 39.9 °F 36.7 °F 30.7 °F 70% 30.17 in 10.0 mi NE 4.6 mph - N/A   Clear
5:55 AM 40.3 °F 37.1 °F 30.7 °F 69% 30.19 in 10.0 mi NE 4.6 mph - N/A   Clear
6:55 AM 41.9 °F 38.2 °F 30.7 °F 65% 30.22 in 10.0 mi NE 5.8 mph - N/A   Clear
7:55 AM 45.9 °F 44.6 °F 31.6 °F 58% 30.25 in 10.0 mi Variable 3.5 mph - N/A   Clear
8:55 AM 49.6 °F - 31.5 °F 50% 30.25 in 10.0 mi East 5.8 mph - N/A   Clear
9:55 AM 54.0 °F - 32.4 °F 44% 30.25 in 10.0 mi ENE 5.8 mph - N/A   Clear
10:55 AM 56.8 °F - 30.6 °F 37% 30.22 in 10.0 mi East 3.5 mph - 0.00 in   Light Drizzle
11:55 AM 59.5 °F - 32.7 °F 36% 30.20 in 10.0 mi ENE 3.5 mph - 0.00 in   Light Drizzle
12:55 PM 59.7 °F - 35.1 °F 40% 30.17 in 10.0 mi Calm Calm - 0.00 in   Light Drizzle
1:55 PM 62.1 °F - 35.6 °F 37% 30.15 in 10.0 mi SW 3.5 mph - 0.00 in   Light Drizzle
2:55 PM 60.3 °F - 37.9 °F 44% 30.15 in 10.0 mi SW 5.8 mph - 0.00 in   Light Drizzle
3:55 PM 58.6 °F - 37.8 °F 46% 30.14 in 10.0 mi WSW 3.5 mph - 0.00 in   Light Drizzle
4:55 PM 52.7 °F - 40.8 °F 64% 30.15 in 10.0 mi Calm Calm - 0.00 in   Clear
5:55 PM 45.5 °F - 40.1 °F 81% 30.16 in 10.0 mi Calm Calm - N/A   Clear
6:55 PM 43.9 °F - 37.9 °F 80% 30.17 in 10.0 mi Calm Calm - N/A   Clear
7:55 PM 41.7 °F - 37.6 °F 85% 30.18 in 10.0 mi Calm Calm - N/A   Clear
8:55 PM 39.7 °F - 36.3 °F 88% 30.18 in 10.0 mi Calm Calm - N/A   Clear
9:55 PM 39.6 °F - 36.7 °F 89% 30.18 in 10.0 mi Calm Calm - N/A   Clear
10:55 PM 38.8 °F - 37.6 °F 95% 30.17 in 10.0 mi Calm Calm - N/A   Clear
11:55 PM 38.7 °F - 37.9 °F 97% 30.16 in 10.0 mi Calm Calm - N/A   Clear